Location: Holyhead Bay
(53.3667°N, 4.6667°W)
Time: 13:58:06
(UTC+00:00)

IRIDIUM 33 DEB - Pass Details

Date: 30 September 2021
Orbit: 581 x 600 km, 86.4° (Epoch: 26 October)

Event Time Altitude Azimuth Distance (km) Brightness Sun altitude
Rises 02:47:21 0° 8° (N) 2,854 ? -29.9°
Reaches altitude 10° 02:50:37 10° 35° (NE) 1,939 ? -29.6°
Maximum altitude 02:52:48 14° 66° (ENE) 1,704 ? -29.3°
Drops below altitude 10° 02:54:57 10° 97° (E) 1,924 ? -29.1°
Sets 02:58:10 0° 124° (ESE) 2,812 ? -28.7°
